OPS 4682 DEB, 18271

Orbit data source: Space-Track

OPS 4682 DEB, 18271 is space debris in LEO originally from a launch on Sat, 03 Apr 1965 UTC launched from the Air Force Western Test Range (AFWTR). Debris objects in space refer to the collection of defunct objects orbiting the Earth. Examples of debris include non-operational satellites, rocket bodies, and fragments generated from explosions, collisions, or faulty payload assembly.

Loading next visibility...
Identifier
18271, 1965-027AA
Orbit
LEO
Country
Flag of USUS
Related business
Manufacturer
Unknown
Mission
Spacecraft
Bus & Motor
Unknown
Mass
Unknown
Launch date (UTC)
1965-04-03 (61 years ago)
Launch vehicle
Unknown
Launch site
Air Force Western Test Range (AFWTR)
Object type
Payload
Rocket body
Debris
Shape & HBR
Unknown shape, 0.1 m
Radar Cross Section
Small (<0.1 m²)

Expand to show TLE details & history
Last TLE update: 20 hours ago

TLE from 20 hours ago
0 OPS 4682 DEB
1 18271U 65027AA  26135.64838723  .00000545  00000-0  18458-2 0  9999
2 18271  90.2455   6.7887 0030551 201.4105 183.5950 12.97653316885172
Epoch: 2026-05-15T15:33Z
TLE epoch observation values (Epoch: 2026-05-15T15:33:40.656Z)
Latitude
25.00822°
Longitude
-100.12134°
Altitude
1,297.646 km
Speed
7.199 km/s
True Right ascension
00h 26m 41s
True Declination
24° 53' 10"
Sunlit
Object was in daylight at epoch
Visualization orbit readout
Latitude
Unknown
Longitude
Unknown
Altitude
Unknown
Speed
Unknown
Apparent Right ascension
Unknown
Apparent Declination
Unknown
Sunlit
N/A
Visualization observer readout
Local Sidereal Time
20:25:52
Azimuth
Unknown
Elevation
Unknown
Doppler factor
Unknown
Orbital elements
Apogee altitude
1,291.786 km
Perigee altitude
1,245.064 km
Semi-major axis
7,646.562 km
Eccentricity
0.00306
Inclination
90.2455°
RAAN
6.7887°
Arg. of periapsis
201.4105°
True anomaly
183.57313°
Mean anomaly
183.595°
Eccentric anomaly
183.58406°
Mean motion
3.24596 °/min
Orbital period
110.91 mins
BSTAR
0.0018458
Loading maneuver chart data...
Computing Atmospheric mass density...
Loading historical data...
Loading historical data...
Loading historical data...
Loading historical data...
Loading historical data...
Loading historical data...
Loading historical data...

Documentation

Showing up to 5 results
|